QPF
0.00 0.00 0.00 0.00 0.00 0.00 0.00 0.00 0.00 0.00 0.00 0.00 0.00 0.00 0.00 0.00 0.00 0.00 0.00 0.00 0.00 0.00 0.01 0.01 0.01 0.02 0.02 0.03 0.04 0.07 0.14 0.30 0.43 0.38 0.38 0.36 0.28 0.20 0.15 0.11 0.09 0.09 0.08 0.10
0.00 0.00 0.00 0.00 0.00 0.00 0.00 0.00 0.00 0.00 0.00 0.00 0.00 0.00 0.00 0.00 0.00 0.00 0.00 0.00 0.01 0.01 0.01 0.01 0.01 0.01 0.02 0.05 0.13 0.24 0.42 0.54 0.53 0.57 0.62 0.57 0.46 0.31 0.22 0.16 0.15 0.13 0.12 0.13
0.00 0.00 0.00 0.00 0.00 0.00 0.00 0.00 0.00 0.00 0.00 0.00 0.00 0.00 0.00 0.00 0.00 0.00 0.00 0.00 0.00 0.00 0.01 0.01 0.01 0.02 0.05 0.10 0.20 0.32 0.46 0.51 0.50 0.53 0.57 0.51 0.43 0.33 0.26 0.22 0.18 0.16 0.14 0.14
0.00 0.00 0.00 0.00 0.00 0.00 0.00 0.00 0.00 0.00 0.00 0.00 0.00 0.00 0.00 0.00 0.00 0.00 0.00 0.00 0.00 0.00 0.00 0.00 0.01 0.03 0.07 0.11 0.16 0.23 0.30 0.34 0.36 0.39 0.45 0.49 0.47 0.39 0.29 0.21 0.15 0.13 0.11 0.12
0.00 0.00 0.00 0.00 0.00 0.00 0.00 0.00 0.00 0.00 0.00 0.00 0.00 0.00 0.00 0.00 0.00 0.00 0.00 0.00 0.00 0.00 0.00 0.00 0.01 0.02 0.03 0.05 0.07 0.10 0.14 0.15 0.16 0.20 0.29 0.36 0.34 0.29 0.22 0.16 0.13 0.11 0.09 0.09
0.00 0.00 0.00 0.00 0.00 0.00 0.00 0.00 0.00 0.00 0.00 0.00 0.00 0.00 0.00 0.00 0.00 0.00 0.00 0.00 0.00 0.00 0.01 0.01 0.01 0.02 0.02 0.02 0.03 0.05 0.05 0.06 0.07 0.10 0.15 0.25 0.30 0.28 0.23 0.19 0.16 0.15 0.12 0.09
0.00 0.00 0.00 0.00 0.00 0.00 0.00 0.00 0.01 0.00 0.00 0.00 0.00 0.00 0.00 0.00 0.00 0.00 0.00 0.00 0.00 0.01 0.01 0.02 0.03 0.05 0.05 0.03 0.03 0.02 0.02 0.03 0.04 0.05 0.08 0.13 0.18 0.20 0.20 0.20 0.18 0.17 0.15 0.12
0.00 0.00 0.00 0.00 0.00 0.00 0.01 0.02 0.04 0.02 0.01 0.00 0.00 0.00 0.00 0.00 0.00 0.00 0.00 0.00 0.01 0.01 0.02 0.03 0.04 0.05 0.04 0.03 0.02 0.02 0.02 0.03 0.04 0.06 0.08 0.10 0.12 0.15 0.16 0.16 0.17 0.16 0.15 0.14
0.00 0.00 0.00 0.00 0.00 0.01 0.05 0.07 0.05 0.07 0.04 0.04 0.01 0.01 0.01 0.00 0.00 0.00 0.00 0.01 0.01 0.02 0.02 0.03 0.03 0.04 0.03 0.03 0.03 0.03 0.04 0.05 0.06 0.08 0.08 0.09 0.10 0.12 0.12 0.11 0.12 0.12 0.11 0.09
0.00 0.00 0.00 0.00 0.01 0.02 0.04 0.07 0.12 0.14 0.13 0.09 0.04 0.04 0.06 0.03 0.01 0.01 0.01 0.01 0.01 0.02 0.02 0.03 0.04 0.04 0.03 0.02 0.03 0.04 0.05 0.07 0.07 0.06 0.05 0.05 0.06 0.05 0.06 0.07 0.07 0.06 0.05 0.04
0.00 0.02 0.01 0.01 0.03 0.04 0.05 0.07 0.11 0.14 0.14 0.12 0.09 0.07 0.04 0.05 0.03 0.02 0.01 0.01 0.01 0.01 0.01 0.02 0.02 0.02 0.02 0.02 0.02 0.03 0.04 0.05 0.04 0.03 0.02 0.01 0.01 0.01 0.01 0.01 0.01 0.01 0.01 0.01
0.00 0.01 0.01 0.00 0.01 0.00 0.03 0.05 0.08 0.09 0.09 0.10 0.08 0.07 0.02 0.03 0.03 0.03 0.02 0.01 0.01 0.01 0.00 0.00 0.00 0.00 0.00 0.01 0.01 0.02 0.02 0.02 0.02 0.01 0.00 0.00 0.00 0.00 0.00 0.00 0.00 0.00 0.00 0.00
0.00 0.01 0.01 0.01 0.01 0.01 0.03 0.04 0.06 0.07 0.07 0.07 0.08 0.10 0.04 0.04 0.05 0.04 0.03 0.02 0.01 0.00 0.00 0.00 0.00 0.00 0.00 0.00 0.00 0.01 0.01 0.01 0.01 0.01 0.00 0.00 0.00 0.00 0.00 0.00 0.00 0.00 0.00 0.00
0.00 0.00 0.01 0.02 0.02 0.01 0.01 0.02 0.04 0.06 0.06 0.04 0.05 0.07 0.06 0.06 0.07 0.07 0.06 0.03 0.01 0.00 0.00 0.00 0.00 0.00 0.00 0.00 0.00 0.00 0.00 0.01 0.00 0.01 0.00 0.00 0.00 0.00 0.00 0.00 0.00 0.00 0.00 0.00
0.00 0.01 0.01 0.01 0.01 0.01 0.02 0.02 0.04 0.06 0.06 0.05 0.05 0.07 0.07 0.07 0.06 0.07 0.06 0.05 0.03 0.01 0.00 0.00 0.00 0.00 0.00 0.00 0.00 0.00 0.00 0.00 0.01 0.01 0.00 0.00 0.00 0.00 0.00 0.00 0.00 0.00 0.00 0.00
0.00 0.01 0.02 0.03 0.03 0.04 0.05 0.04 0.04 0.06 0.07 0.07 0.06 0.05 0.03 0.04 0.07 0.09 0.09 0.07 0.05 0.02 0.01 0.00 0.00 0.00 0.00 0.00 0.00 0.01 0.01 0.01 0.01 0.01 0.01 0.01 0.01 0.01 0.01 0.01 0.00 0.00 0.00 0.00
0.00 0.00 0.01 0.02 0.05 0.07 0.08 0.05 0.05 0.07 0.06 0.07 0.07 0.05 0.03 0.03 0.04 0.04 0.05 0.06 0.06 0.03 0.01 0.00 0.00 0.00 0.00 0.00 0.01 0.01 0.01 0.01 0.01 0.01 0.01 0.01 0.02 0.02 0.02 0.01 0.01 0.01 0.00 0.00
0.00 0.00 0.01 0.02 0.06 0.08 0.06 0.01 0.01 0.03 0.03 0.02 0.03 0.02 0.02 0.03 0.03 0.02 0.01 0.01 0.02 0.02 0.01 0.01 0.01 0.00 0.00 0.00 0.01 0.01 0.01 0.02 0.02 0.02 0.02 0.02 0.02 0.03 0.02 0.03 0.02 0.01 0.00 0.00
0.00 0.00 0.01 0.02 0.04 0.03 0.01 0.00 0.00 0.02 0.02 0.00 0.01 0.01 0.01 0.00 0.01 0.01 0.00 0.00 0.00 0.00 0.00 0.00 0.01 0.01 0.01 0.01 0.01 0.01 0.02 0.02 0.03 0.03 0.03 0.03 0.03 0.04 0.05 0.07 0.06 0.03 0.01 0.01
0.00 0.00 0.00 0.01 0.01 0.01 0.01 0.00 0.00 0.01 0.03 0.00 0.00 0.01 0.01 0.00 0.01 0.01 0.00 0.00 0.00 0.00 0.00 0.01 0.01 0.01 0.01 0.01 0.01 0.02 0.03 0.03 0.04 0.04 0.05 0.05 0.05 0.05 0.06 0.07 0.06 0.05 0.03 0.02
0.00 0.00 0.00 0.00 0.00 0.00 0.00 0.00 0.01 0.02 0.02 0.00 0.00 0.00 0.00 0.01 0.01 0.00 0.00 0.00 0.00 0.00 0.00 0.01 0.01 0.02 0.01 0.01 0.02 0.03 0.03 0.03 0.04 0.04 0.05 0.06 0.05 0.04 0.05 0.06 0.07 0.05 0.04 0.04
0.00 0.00 0.00 0.00 0.00 0.00 0.00 0.00 0.01 0.01 0.00 0.00 0.00 0.00 0.00 0.00 0.00 0.00 0.00 0.00 0.00 0.01 0.01 0.01 0.01 0.02 0.02 0.02 0.03 0.04 0.04 0.04 0.04 0.04 0.04 0.05 0.04 0.04 0.05 0.07 0.07 0.06 0.06 0.07
0.00 0.00 0.00 0.00 0.00 0.00 0.00 0.00 0.00 0.00 0.00 0.00 0.00 0.00 0.00 0.00 0.00 0.00 0.00 0.00 0.00 0.01 0.01 0.01 0.01 0.02 0.02 0.02 0.03 0.04 0.04 0.04 0.06 0.06 0.06 0.05 0.06 0.05 0.06 0.06 0.07 0.07 0.07 0.08
0.00 0.00 0.00 0.00 0.00 0.00 0.00 0.00 0.00 0.00 0.00 0.00 0.00 0.00 0.00 0.00 0.00 0.00 0.00 0.00 0.00 0.01 0.01 0.01 0.01 0.02 0.02 0.02 0.03 0.03 0.03 0.04 0.06 0.06 0.05 0.05 0.07 0.09 0.08 0.08 0.10 0.10 0.10 0.09
0.00 0.00 0.00 0.00 0.00 0.00 0.00 0.00 0.00 0.00 0.00 0.00 0.00 0.00 0.00 0.00 0.00 0.00 0.00 0.00 0.00 0.00 0.00 0.01 0.01 0.01 0.01 0.02 0.02 0.02 0.02 0.02 0.03 0.04 0.05 0.05 0.06 0.10 0.11 0.09 0.09 0.12 0.13 0.12
0.00 0.00 0.00 0.00 0.00 0.00 0.00 0.00 0.00 0.00 0.00 0.00 0.00 0.00 0.00 0.00 0.00 0.00 0.00 0.00 0.00 0.00 0.00 0.00 0.00 0.00 0.00 0.01 0.01 0.01 0.01 0.02 0.03 0.04 0.04 0.05 0.05 0.06 0.08 0.08 0.08 0.07 0.08 0.08
MSLP
1012.12 1012.41 1012.58 1012.64 1012.60 1012.49 1012.33 1012.13 1011.90 1011.64 1011.36 1011.06 1010.77 1010.51 1010.29 1010.16 1010.10 1010.14 1010.23 1010.37 1010.52 1010.65 1010.75 1010.82 1010.88 1010.96 1011.08 1011.27 1011.55 1011.91 1012.33 1012.79 1013.23 1013.65 1014.01 1014.31 1014.56 1014.77 1014.97 1015.17 1015.35 1015.52 1015.66 1015.76
1012.41 1012.64 1012.77 1012.80 1012.76 1012.66 1012.53 1012.36 1012.16 1011.92 1011.65 1011.36 1011.08 1010.81 1010.60 1010.46 1010.42 1010.45 1010.55 1010.68 1010.80 1010.88 1010.92 1010.90 1010.86 1010.84 1010.86 1010.98 1011.20 1011.52 1011.94 1012.42 1012.92 1013.39 1013.82 1014.19 1014.49 1014.75 1014.97 1015.17 1015.35 1015.50 1015.62 1015.70
1012.55 1012.71 1012.78 1012.79 1012.76 1012.69 1012.61 1012.49 1012.34 1012.15 1011.92 1011.65 1011.38 1011.12 1010.92 1010.80 1010.76 1010.81 1010.92 1011.05 1011.16 1011.22 1011.20 1011.12 1011.00 1010.88 1010.82 1010.84 1010.99 1011.27 1011.67 1012.15 1012.66 1013.18 1013.65 1014.06 1014.40 1014.69 1014.92 1015.12 1015.29 1015.43 1015.53 1015.59
1012.54 1012.62 1012.64 1012.64 1012.62 1012.61 1012.60 1012.56 1012.49 1012.37 1012.19 1011.97 1011.72 1011.48 1011.29 1011.19 1011.17 1011.24 1011.37 1011.51 1011.62 1011.66 1011.62 1011.49 1011.31 1011.12 1010.97 1010.91 1010.99 1011.21 1011.56 1012.01 1012.51 1013.03 1013.51 1013.94 1014.30 1014.59 1014.83 1015.02 1015.18 1015.31 1015.40 1015.45
1012.43 1012.42 1012.40 1012.40 1012.42 1012.48 1012.56 1012.63 1012.66 1012.62 1012.52 1012.35 1012.15 1011.94 1011.77 1011.68 1011.68 1011.77 1011.91 1012.07 1012.19 1012.23 1012.17 1012.02 1011.79 1011.54 1011.32 1011.19 1011.19 1011.34 1011.63 1012.02 1012.49 1012.97 1013.43 1013.84 1014.19 1014.47 1014.70 1014.88 1015.03 1015.15 1015.24 1015.28
1012.28 1012.20 1012.15 1012.15 1012.23 1012.37 1012.55 1012.73 1012.87 1012.94 1012.92 1012.83 1012.67 1012.51 1012.37 1012.30 1012.31 1012.41 1012.57 1012.73 1012.86 1012.90 1012.84 1012.67 1012.41 1012.12 1011.85 1011.66 1011.59 1011.66 1011.87 1012.19 1012.59 1013.01 1013.42 1013.79 1014.10 1014.35 1014.55 1014.72 1014.86 1014.97 1015.05 1015.09
1012.15 1012.02 1011.96 1011.98 1012.11 1012.33 1012.61 1012.90 1013.15 1013.32 1013.39 1013.37 1013.28 1013.16 1013.06 1013.01 1013.05 1013.15 1013.31 1013.48 1013.61 1013.65 1013.58 1013.40 1013.13 1012.81 1012.51 1012.26 1012.13 1012.12 1012.25 1012.48 1012.79 1013.13 1013.47 1013.77 1014.03 1014.24 1014.42 1014.56 1014.69 1014.80 1014.88 1014.92
1012.10 1011.95 1011.88 1011.94 1012.11 1012.39 1012.75 1013.12 1013.45 1013.71 1013.86 1013.92 1013.90 1013.84 1013.78 1013.77 1013.83 1013.95 1014.11 1014.28 1014.40 1014.44 1014.36 1014.17 1013.89 1013.55 1013.21 1012.93 1012.74 1012.67 1012.71 1012.86 1013.08 1013.33 1013.58 1013.81 1014.01 1014.17 1014.31 1014.43 1014.55 1014.65 1014.73 1014.77
1012.15 1012.00 1011.95 1012.03 1012.23 1012.55 1012.94 1013.35 1013.74 1014.05 1014.27 1014.40 1014.44 1014.45 1014.46 1014.50 1014.59 1014.73 1014.90 1015.06 1015.17 1015.20 1015.11 1014.90 1014.61 1014.26 1013.90 1013.59 1013.36 1013.23 1013.21 1013.28 1013.41 1013.58 1013.75 1013.91 1014.04 1014.16 1014.26 1014.37 1014.47 1014.56 1014.64 1014.69
1012.31 1012.19 1012.16 1012.24 1012.45 1012.76 1013.14 1013.55 1013.94 1014.28 1014.53 1014.71 1014.83 1014.91 1014.99 1015.10 1015.25 1015.43 1015.62 1015.78 1015.88 1015.89 1015.77 1015.55 1015.24 1014.88 1014.51 1014.17 1013.91 1013.75 1013.68 1013.69 1013.76 1013.86 1013.97 1014.07 1014.15 1014.23 1014.30 1014.38 1014.47 1014.56 1014.64 1014.68
1012.57 1012.48 1012.47 1012.55 1012.72 1012.99 1013.31 1013.67 1014.01 1014.33 1014.59 1014.81 1014.99 1015.15 1015.32 1015.52 1015.74 1015.98 1016.20 1016.37 1016.47 1016.45 1016.32 1016.08 1015.75 1015.37 1014.99 1014.65 1014.38 1014.19 1014.10 1014.08 1014.11 1014.16 1014.23 1014.29 1014.34 1014.39 1014.44 1014.50 1014.58 1014.66 1014.73 1014.76
1012.89 1012.84 1012.84 1012.90 1013.02 1013.20 1013.43 1013.68 1013.94 1014.20 1014.44 1014.67 1014.91 1015.16 1015.43 1015.73 1016.04 1016.35 1016.62 1016.82 1016.91 1016.89 1016.73 1016.47 1016.12 1015.73 1015.34 1015.00 1014.73 1014.54 1014.44 1014.41 1014.43 1014.48 1014.52 1014.57 1014.60 1014.63 1014.67 1014.72 1014.78 1014.84 1014.90 1014.93
1013.24 1013.23 1013.24 1013.26 1013.31 1013.38 1013.49 1013.62 1013.76 1013.93 1014.13 1014.36 1014.64 1014.97 1015.34 1015.74 1016.16 1016.55 1016.88 1017.11 1017.22 1017.18 1017.01 1016.72 1016.36 1015.96 1015.57 1015.24 1014.98 1014.81 1014.73 1014.71 1014.74 1014.79 1014.84 1014.88 1014.91 1014.94 1014.96 1015.00 1015.04 1015.09 1015.13 1015.14
1013.58 1013.61 1013.62 1013.60 1013.58 1013.55 1013.52 1013.51 1013.53 1013.60 1013.74 1013.95 1014.25 1014.64 1015.10 1015.61 1016.12 1016.59 1016.99 1017.26 1017.38 1017.35 1017.17 1016.87 1016.49 1016.09 1015.71 1015.39 1015.16 1015.01 1014.95 1014.96 1015.02 1015.08 1015.15 1015.21 1015.24 1015.27 1015.29 1015.31 1015.34 1015.36 1015.38 1015.37
1013.88 1013.94 1013.96 1013.91 1013.82 1013.69 1013.55 1013.41 1013.31 1013.28 1013.35 1013.53 1013.84 1014.27 1014.80 1015.38 1015.97 1016.52 1016.97 1017.28 1017.42 1017.40 1017.22 1016.92 1016.55 1016.15 1015.79 1015.49 1015.28 1015.17 1015.15 1015.19 1015.27 1015.37 1015.46 1015.52 1015.57 1015.59 1015.61 1015.62 1015.62 1015.62 1015.60 1015.57
1014.11 1014.20 1014.22 1014.17 1014.03 1013.83 1013.60 1013.36 1013.16 1013.04 1013.04 1013.18 1013.48 1013.92 1014.48 1015.11 1015.76 1016.35 1016.84 1017.19 1017.35 1017.35 1017.18 1016.89 1016.54 1016.17 1015.83 1015.56 1015.39 1015.32 1015.33 1015.40 1015.51 1015.63 1015.74 1015.82 1015.87 1015.90 1015.90 1015.89 1015.87 1015.84 1015.79 1015.73
1014.24 1014.36 1014.40 1014.34 1014.19 1013.96 1013.67 1013.36 1013.09 1012.90 1012.84 1012.94 1013.21 1013.64 1014.20 1014.84 1015.50 1016.12 1016.63 1016.99 1017.18 1017.20 1017.06 1016.80 1016.48 1016.15 1015.86 1015.63 1015.50 1015.46 1015.51 1015.61 1015.74 1015.88 1015.99 1016.08 1016.13 1016.15 1016.15 1016.13 1016.08 1016.03 1015.95 1015.85
1014.26 1014.40 1014.46 1014.42 1014.28 1014.04 1013.74 1013.40 1013.09 1012.86 1012.75 1012.81 1013.03 1013.43 1013.96 1014.58 1015.22 1015.83 1016.34 1016.71 1016.92 1016.96 1016.86 1016.65 1016.38 1016.11 1015.87 1015.71 1015.62 1015.62 1015.70 1015.82 1015.96 1016.11 1016.22 1016.31 1016.36 1016.38 1016.37 1016.33 1016.28 1016.20 1016.11 1015.99
1014.16 1014.30 1014.39 1014.37 1014.26 1014.05 1013.76 1013.43 1013.12 1012.87 1012.73 1012.75 1012.93 1013.27 1013.75 1014.32 1014.92 1015.49 1015.98 1016.35 1016.57 1016.65 1016.60 1016.45 1016.26 1016.06 1015.89 1015.79 1015.76 1015.80 1015.90 1016.03 1016.18 1016.32 1016.43 1016.52 1016.56 1016.58 1016.56 1016.53 1016.48 1016.40 1016.30 1016.17
1013.95 1014.09 1014.18 1014.19 1014.11 1013.93 1013.69 1013.40 1013.11 1012.87 1012.73 1012.72 1012.86 1013.14 1013.56 1014.06 1014.60 1015.12 1015.58 1015.94 1016.18 1016.29 1016.30 1016.23 1016.12 1016.00 1015.92 1015.88 1015.91 1015.99 1016.11 1016.25 1016.40 1016.53 1016.63 1016.70 1016.74 1016.76 1016.76 1016.74 1016.70 1016.64 1016.56 1016.45
1013.65 1013.76 1013.83 1013.85 1013.80 1013.67 1013.48 1013.25 1013.01 1012.80 1012.68 1012.66 1012.77 1013.01 1013.37 1013.80 1014.28 1014.75 1015.17 1015.52 1015.77 1015.93 1015.99 1016.00 1015.98 1015.95 1015.95 1015.99 1016.07 1016.18 1016.32 1016.46 1016.60 1016.71 1016.80 1016.86 1016.90 1016.93 1016.94 1016.95 1016.95 1016.93 1016.88 1016.81
1013.27 1013.32 1013.36 1013.38 1013.34 1013.26 1013.12 1012.95 1012.78 1012.64 1012.55 1012.56 1012.66 1012.88 1013.19 1013.57 1013.99 1014.41 1014.80 1015.13 1015.40 1015.59 1015.72 1015.80 1015.86 1015.92 1016.00 1016.09 1016.22 1016.36 1016.51 1016.65 1016.77 1016.87 1016.94 1016.99 1017.03 1017.06 1017.10 1017.14 1017.18 1017.22 1017.24 1017.21
1012.81 1012.79 1012.78 1012.76 1012.73 1012.68 1012.61 1012.51 1012.42 1012.36 1012.34 1012.38 1012.51 1012.72 1013.01 1013.36 1013.74 1014.13 1014.49 1014.82 1015.09 1015.32 1015.50 1015.64 1015.77 1015.90 1016.04 1016.19 1016.35 1016.51 1016.66 1016.79 1016.89 1016.96 1017.01 1017.05 1017.08 1017.13 1017.19 1017.27 1017.36 1017.46 1017.54 1017.60
1012.26 1012.15 1012.07 1012.02 1011.99 1011.97 1011.95 1011.94 1011.93 1011.96 1012.02 1012.14 1012.32 1012.56 1012.86 1013.20 1013.56 1013.93 1014.28 1014.60 1014.88 1015.13 1015.34 1015.53 1015.72 1015.89 1016.08 1016.26 1016.44 1016.60 1016.75 1016.86 1016.94 1016.98 1017.01 1017.03 1017.05 1017.10 1017.18 1017.29 1017.43 1017.59 1017.74 1017.86
1011.59 1011.40 1011.26 1011.18 1011.14 1011.14 1011.17 1011.24 1011.33 1011.46 1011.62 1011.83 1012.08 1012.37 1012.70 1013.06 1013.43 1013.79 1014.14 1014.46 1014.75 1015.00 1015.24 1015.46 1015.67 1015.87 1016.08 1016.27 1016.46 1016.62 1016.75 1016.84 1016.89 1016.91 1016.92 1016.91 1016.92 1016.96 1017.05 1017.18 1017.35 1017.54 1017.75 1017.94
1010.80 1010.54 1010.35 1010.23 1010.19 1010.22 1010.30 1010.44 1010.63 1010.85 1011.12 1011.42 1011.76 1012.13 1012.52 1012.91 1013.31 1013.68 1014.03 1014.35 1014.65 1014.91 1015.15 1015.37 1015.59 1015.81 1016.01 1016.21 1016.39 1016.54 1016.65 1016.73 1016.76 1016.75 1016.73 1016.70 1016.69 1016.72 1016.80 1016.93 1017.11 1017.33 1017.56 1017.79
Thickness
5736 5735 5734 5742 5748 5749 5751 5752 5754 5762 5770 5770 5773 5778 5788 5793 5795 5793 5793 5793 5793 5792 5797 5798 5798 5798 5795 5791 5787 5784 5782 5779 5775 5771 5767 5762 5758 5756 5754 5752 5751 5749 5748 5748
5723 5725 5734 5738 5740 5738 5739 5739 5745 5753 5760 5761 5763 5766 5774 5776 5779 5782 5782 5781 5783 5784 5786 5787 5789 5790 5789 5786 5783 5780 5778 5775 5772 5768 5764 5759 5753 5749 5747 5745 5743 5740 5740 5741
5716 5725 5732 5731 5731 5730 5735 5737 5742 5744 5751 5755 5752 5751 5760 5762 5765 5767 5768 5769 5773 5774 5777 5779 5779 5781 5782 5781 5778 5777 5774 5771 5768 5765 5760 5755 5749 5745 5741 5739 5737 5735 5734 5734
5716 5723 5724 5724 5726 5730 5727 5739 5739 5738 5735 5739 5744 5734 5755 5757 5753 5752 5753 5756 5759 5762 5767 5770 5772 5773 5774 5774 5774 5770 5767 5764 5761 5758 5754 5749 5744 5739 5737 5735 5733 5731 5730 5729
5710 5716 5717 5715 5722 5726 5729 5734 5731 5729 5728 5729 5737 5727 5750 5751 5745 5743 5741 5741 5745 5748 5753 5757 5761 5764 5765 5765 5763 5761 5757 5754 5752 5749 5746 5742 5740 5737 5734 5730 5727 5725 5724 5722
5712 5718 5718 5719 5724 5724 5724 5721 5720 5721 5720 5709 5727 5724 5731 5746 5740 5734 5730 5727 5728 5732 5737 5740 5745 5749 5749 5750 5750 5748 5745 5741 5740 5738 5736 5733 5731 5728 5725 5721 5720 5717 5716 5716
5700 5711 5717 5717 5710 5713 5711 5702 5692 5692 5699 5708 5731 5719 5726 5720 5722 5718 5712 5711 5714 5718 5720 5722 5725 5729 5730 5732 5733 5734 5732 5729 5728 5727 5725 5724 5722 5719 5716 5713 5712 5709 5709 5709
5687 5695 5709 5710 5705 5703 5703 5700 5681 5676 5691 5709 5708 5703 5722 5712 5709 5704 5700 5699 5700 5701 5703 5704 5707 5711 5714 5717 5719 5719 5719 5717 5716 5715 5714 5712 5711 5710 5708 5706 5705 5703 5703 5703
5687 5690 5701 5703 5706 5700 5691 5689 5698 5681 5680 5677 5693 5702 5696 5698 5692 5689 5685 5683 5682 5683 5685 5688 5691 5695 5698 5701 5704 5706 5706 5705 5704 5703 5702 5700 5699 5698 5697 5696 5695 5695 5695 5695
5690 5681 5695 5694 5696 5691 5692 5688 5673 5659 5648 5649 5670 5681 5679 5679 5676 5672 5669 5667 5666 5669 5672 5675 5678 5681 5684 5687 5691 5694 5694 5693 5693 5693 5692 5690 5689 5686 5686 5686 5684 5684 5684 5685
5685 5672 5678 5680 5677 5679 5675 5672 5666 5656 5649 5639 5642 5659 5667 5673 5668 5661 5657 5655 5655 5658 5662 5665 5668 5671 5675 5677 5679 5681 5682 5682 5681 5682 5681 5680 5679 5678 5676 5675 5674 5674 5674 5676
5675 5669 5662 5668 5674 5674 5669 5666 5660 5644 5640 5641 5640 5649 5658 5656 5652 5649 5644 5643 5644 5648 5652 5656 5658 5661 5664 5666 5668 5669 5670 5671 5671 5671 5671 5671 5669 5668 5668 5666 5665 5665 5665 5667
5662 5650 5643 5647 5646 5652 5651 5656 5653 5646 5639 5636 5633 5641 5639 5639 5635 5633 5631 5631 5633 5636 5640 5645 5647 5650 5652 5654 5656 5658 5659 5659 5660 5660 5660 5659 5660 5658 5658 5657 5657 5657 5658 5659
5652 5642 5631 5623 5624 5628 5632 5640 5643 5637 5629 5633 5641 5642 5627 5626 5623 5620 5618 5619 5621 5625 5629 5632 5635 5638 5640 5643 5645 5647 5648 5649 5650 5651 5650 5649 5649 5649 5649 5649 5648 5649 5650 5650
5644 5635 5633 5631 5631 5626 5624 5627 5631 5631 5632 5630 5636 5636 5627 5619 5614 5608 5606 5607 5609 5613 5617 5620 5623 5626 5630 5633 5635 5637 5638 5639 5641 5642 5641 5641 5641 5640 5639 5639 5639 5639 5639 5640
5639 5627 5626 5622 5626 5621 5618 5623 5624 5625 5627 5629 5630 5622 5616 5608 5604 5599 5597 5597 5600 5604 5608 5611 5614 5617 5621 5624 5627 5628 5628 5629 5630 5629 5629 5629 5629 5629 5628 5628 5627 5627 5628 5629
5636 5622 5615 5613 5621 5614 5608 5618 5617 5616 5617 5616 5612 5611 5606 5601 5598 5596 5593 5593 5594 5597 5600 5602 5604 5607 5611 5615 5617 5619 5618 5618 5618 5617 5616 5616 5615 5615 5614 5615 5615 5615 5615 5616
5627 5619 5616 5613 5607 5593 5608 5617 5615 5611 5610 5611 5608 5606 5603 5599 5596 5594 5593 5593 5592 5593 5593 5594 5597 5599 5604 5607 5609 5609 5609 5607 5605 5604 5603 5602 5602 5601 5600 5599 5599 5599 5601 5602
5630 5619 5616 5609 5604 5607 5612 5611 5611 5606 5607 5612 5608 5604 5601 5599 5594 5593 5592 5590 5589 5588 5587 5587 5589 5593 5596 5599 5600 5600 5599 5597 5595 5593 5592 5590 5589 5588 5586 5585 5584 5584 5585 5586
5630 5622 5615 5611 5598 5597 5608 5612 5612 5606 5603 5612 5608 5602 5599 5594 5591 5593 5591 5586 5583 5582 5581 5582 5584 5586 5587 5589 5590 5591 5589 5587 5585 5584 5582 5580 5579 5577 5575 5573 5571 5571 5572 5572
5628 5623 5616 5611 5605 5613 5615 5612 5607 5595 5598 5607 5606 5603 5598 5593 5592 5589 5587 5582 5579 5577 5576 5577 5578 5579 5579 5580 5581 5580 5578 5576 5575 5574 5572 5570 5568 5566 5564 5563 5562 5561 5562 5562
5629 5625 5618 5613 5607 5608 5615 5610 5604 5605 5606 5605 5604 5602 5596 5592 5588 5584 5581 5577 5574 5572 5571 5571 5571 5571 5572 5572 5572 5570 5568 5566 5565 5564 5562 5560 5558 5558 5556 5555 5554 5554 5553 5554
5633 5632 5629 5621 5619 5620 5619 5615 5614 5610 5606 5605 5603 5600 5594 5590 5585 5581 5577 5573 5570 5569 5567 5566 5566 5566 5565 5565 5564 5561 5558 5557 5556 5555 5553 5551 5550 5549 5548 5547 5546 5546 5545 5545
5641 5634 5627 5622 5628 5626 5622 5620 5616 5611 5609 5607 5603 5599 5594 5588 5584 5579 5574 5570 5566 5564 5562 5562 5561 5560 5559 5559 5557 5554 5552 5551 5550 5548 5547 5545 5544 5542 5541 5539 5538 5537 5536 5536
5641 5633 5629 5625 5630 5630 5627 5624 5620 5614 5611 5608 5604 5599 5594 5589 5583 5578 5572 5567 5564 5561 5559 5558 5556 5555 5554 5553 5551 5550 5549 5547 5546 5546 5544 5542 5540 5538 5534 5532 5530 5528 5526 5525
5642 5638 5629 5630 5638 5633 5633 5634 5628 5619 5613 5609 5604 5599 5595 5590 5584 5579 5574 5568 5564 5560 5557 5555 5554 5553 5551 5550 5548 5546 5545 5545 5544 5543 5541 5540 5538 5534 5532 5528 5525 5517 5517 5514